Change the Weather History Date:

Thursday, January 3, 2013

  Actual Average Record
Temperature  
Mean Temperature 17 °F 26 °F  
Max Temperature 28 °F 33 °F 59 °F (1950)
Min Temperature 6 °F 19 °F -9 °F (1979)
Degree Days  
Heating Degree Days 48 39  
Month to date heating degree days 143 117  
Since 1 July heating degree days 2345 2494  
Cooling Degree Days 0 0  
Month to date cooling degree days 0 0  
Year to date cooling degree days 0 0  
Moisture  
Dew Point 14 °F    
Average Humidity 74    
Maximum Humidity 92    
Minimum Humidity 55    
Precipitation  
Precipitation 0.00 in 0.10 in 1.58 in (1950)
Month to date precipitation 0.00 0.31  
Year to date precipitation 0.00 0.31  
Snow  
Snow 0.00 in 0.40 in - ()
Month to date snowfall 0.0 1.3  
Since 1 July snowfall 12.8 14.5  
Snow Depth 5.00 in    
Sea Level Pressure  
Sea Level Pressure 30.19 in    
Wind  
Wind Speed 11 mph (SW)    
Max Wind Speed 20 mph    
Max Gust Speed 29 mph    
Visibility 9 miles    
Events      
T = Trace of Precipitation, MM = Missing Value Source: NWS Daily Summary

Daily Weather History Graph

Daily Weather History Graph

Search for Another Location

Airport or City:

Trip Planner

Search our weather history database for the weather conditions in past years. The results will help you decide how hot, cold, wet, or windy it might be!

Date:

Astronomy

Jan. 03, 2013 Rise Set
Actual Time 7:54 AM EST 5:15 PM EST
Civil Twilight 7:23 AM EST 5:45 PM EST
Nautical Twilight 6:49 AM EST 6:20 PM EST
Astronomical Twilight 6:16 AM EST 6:53 PM EST
Moon 11:52 PM EST (1/3) 11:03 AM EST (1/3)
Length of Visible Light 10h 22m
Length of Day
9h 20m
Waning Gibbous, 65% of the Moon is Illuminated
Jan 3
Waning Gibbous
Jan 4
Last Quarter
Jan 11
New
Jan 18
First Quarter
Jan 26
Full

Hourly Weather History & Observations

Time (EST) Temp. Windchill Dew Point Humidity Pressure Visibility Wind Dir Wind Speed Gust Speed Precip Events Conditions
12:52 AM 8.1 °F -0.5 °F 6.1 °F 92% 30.22 in 6.0 mi South 4.6 mph - N/A   Clear
1:52 AM 6.8 °F -4.8 °F 3.2 °F 85% 30.14 in 6.0 mi South 6.9 mph - N/A   Clear
2:52 AM 8.1 °F -3.2 °F 5.0 °F 87% 30.23 in 6.0 mi South 6.9 mph - N/A   Clear
3:52 AM 8.1 °F -2.0 °F 3.9 °F 83% 30.21 in 7.0 mi South 5.8 mph - N/A   Clear
4:52 AM 9.0 °F -3.2 °F 5.0 °F 84% 30.20 in 8.0 mi South 8.1 mph - N/A   Clear
5:52 AM 9.0 °F -2.2 °F 3.9 °F 80% 30.21 in 10.0 mi SSW 6.9 mph - N/A   Clear
6:52 AM 10.0 °F -1.9 °F 3.0 °F 73% 30.21 in 10.0 mi SSW 8.1 mph - N/A   Clear
7:52 AM 14.0 °F 0.5 °F 3.9 °F 64% 30.21 in 10.0 mi SSW 11.5 mph - N/A   Clear
8:52 AM 18.0 °F 5.4 °F 8.1 °F 65% 30.19 in 10.0 mi SSW 11.5 mph - N/A   Partly Cloudy
9:52 AM 21.9 °F 10.4 °F 10.0 °F 60% 30.19 in 10.0 mi SSW 11.5 mph - N/A   Scattered Clouds
10:52 AM 26.1 °F 14.5 °F 12.0 °F 55% 30.20 in 10.0 mi SW 13.8 mph - N/A   Mostly Cloudy
11:52 AM 27.0 °F 14.3 °F 12.9 °F 56% 30.18 in 10.0 mi SW 17.3 mph 23.0 mph N/A   Mostly Cloudy
12:47 PM 26.6 °F 14.7 °F 12.2 °F 55% 30.11 in 10.0 mi WSW 15.0 mph 28.8 mph N/A   Mostly Cloudy
12:52 PM 27.0 °F 16.7 °F 12.9 °F 56% 30.17 in 10.0 mi WSW 11.5 mph - N/A   Mostly Cloudy
1:52 PM 27.0 °F 15.6 °F 15.1 °F 61% 30.17 in 10.0 mi WSW 13.8 mph 21.9 mph N/A   Overcast
2:52 PM 26.1 °F 13.6 °F 19.0 °F 75% 30.17 in 10.0 mi WSW 16.1 mph 21.9 mph N/A   Overcast
3:52 PM 27.0 °F 15.6 °F 19.9 °F 75% 30.19 in 10.0 mi WSW 13.8 mph 20.7 mph N/A   Overcast
4:36 PM 26.6 °F 13.8 °F 19.4 °F 74% 30.13 in 10.0 mi SW 17.3 mph 21.9 mph N/A   Overcast
4:52 PM 26.1 °F 16.8 °F 19.9 °F 78% 30.20 in 8.0 mi WSW 9.2 mph - N/A   Overcast
5:18 PM 26.6 °F 16.2 °F 21.2 °F 80% 30.15 in 8.0 mi WSW 11.5 mph 18.4 mph N/A   Overcast
5:29 PM 26.6 °F 16.2 °F 21.2 °F 80% 30.16 in 9.0 mi WSW 11.5 mph - N/A   Overcast
5:52 PM 26.1 °F 15.6 °F 21.0 °F 81% 30.23 in 9.0 mi WSW 11.5 mph 19.6 mph N/A   Overcast
6:08 PM 26.6 °F 15.2 °F 21.2 °F 80% 30.16 in 8.0 mi WSW 13.8 mph - N/A   Overcast
6:52 PM 26.1 °F 16.2 °F 19.9 °F 78% 30.23 in 9.0 mi WSW 10.4 mph - N/A   Overcast
7:07 PM 26.6 °F 15.2 °F 19.4 °F 74% 30.17 in 9.0 mi WSW 13.8 mph - N/A   Overcast
7:52 PM 26.1 °F 16.2 °F 21.0 °F 81% 30.24 in 8.0 mi WSW 10.4 mph - N/A   Overcast
8:52 PM 26.1 °F 16.2 °F 21.0 °F 81% 30.25 in 9.0 mi WSW 10.4 mph - N/A   Overcast
9:50 PM 26.6 °F 18.2 °F 21.2 °F 80% 30.19 in 9.0 mi WSW 8.1 mph - N/A   Overcast
9:52 PM 26.1 °F 16.2 °F 21.0 °F 81% 30.25 in 9.0 mi WSW 10.4 mph - N/A   Overcast
10:52 PM 27.0 °F 15.6 °F 19.0 °F 72% 30.24 in 10.0 mi WSW 13.8 mph - N/A   Overcast
11:37 PM 26.6 °F 16.8 °F 19.4 °F 74% 30.19 in 10.0 mi West 10.4 mph - N/A   Overcast
11:52 PM 26.1 °F 16.8 °F 21.0 °F 81% 30.24 in 9.0 mi WSW 9.2 mph - N/A   Overcast